User: anonymous   Login
Location: Caltech
(34.1382°N, 118.1253°W)
Time: 19:48:56
(UTC-07:00)
Language:

Cosmos 1606 - Orbit

View from above orbital plane
View from above orbital plane
View from above satellite
View from above satellite

Ground track
Ground track

The orbit data is extracted from the following two-line orbital elements,

1 15369U 84111A   16145.94400051 +.00001318 +00000-0 +68989-4 0  9996
2 15369 082.5262 144.2625 0018856 158.2812 201.9224 15.14823426721679
Epoch (UTC): 24 May 2016 22:39:21
Eccentricity: 0.0018856
inclination: 82.5262°
perigee height: 508 km
apogee height: 534 km
right ascension of ascending node: 144.2625°
argument of perigee: 158.2812°
revolutions per day: 15.14823426
mean anomaly at epoch: 201.9224°
orbit number at epoch: 72167

The dashed part of the orbit path shows where the satellite is in the earth's shadow,  

DLR